Wind_Speed
23 23 23 22 22 22 21 21 21 22 22 22 23 24 24 24 25 26 26 26 25 23 22 22 23 23 23 23 23 21 21 21 22 22 22 22 21 21 21 20 20 20 20 20 20 20 20 20 20 21 21 21
23 23 23 22 22 22 22 22 22 23 23 23 24 24 25 25 25 26 26 25 24 23 23 23 23 24 25 24 23 22 22 22 22 23 22 22 22 22 21 21 21 21 21 21 21 21 21 21 22 22 22 22
23 22 22 22 22 22 22 23 23 24 24 24 24 24 25 25 25 26 26 25 23 23 23 24 25 26 26 25 24 23 23 23 23 23 23 23 23 23 22 22 22 22 22 22 22 22 22 23 23 23 23 23
23 23 24 24 24 23 23 24 24 24 24 24 23 24 25 24 25 26 26 25 24 24 24 25 26 27 27 26 25 24 24 24 25 24 24 24 24 24 23 23 23 22 23 23 23 23 23 24 24 24 24 24
24 25 25 25 25 25 25 25 24 24 24 23 23 24 24 24 25 25 26 26 25 25 26 27 28 28 27 26 25 25 25 25 26 26 25 25 25 24 24 24 23 23 24 24 24 24 24 24 25 25 25 25
26 26 26 26 25 25 25 25 24 24 23 23 23 23 24 24 24 25 25 26 26 26 27 28 29 28 27 26 26 26 26 27 27 27 26 26 26 25 25 25 25 25 25 25 25 25 25 25 25 25 25 25
27 26 26 26 26 26 26 25 24 23 23 24 23 23 24 24 24 25 26 26 26 27 29 29 29 28 26 26 26 26 27 28 28 28 27 27 27 26 26 26 26 26 26 26 26 26 26 26 26 26 26 26
28 27 27 27 27 27 26 25 24 23 24 24 23 23 23 24 24 25 26 27 28 29 29 29 28 27 26 26 26 27 27 28 29 29 29 28 28 28 28 28 27 27 27 27 27 27 26 26 27 27 27 27
29 29 28 28 27 27 27 26 24 25 25 25 24 23 23 24 25 26 27 28 29 30 30 29 28 27 26 26 27 27 28 29 29 30 30 30 30 29 29 29 29 28 28 27 27 27 27 27 28 28 28 28
30 29 29 28 28 28 28 26 26 26 26 26 25 23 23 24 25 26 27 28 29 30 29 28 28 27 27 27 27 28 29 30 30 31 31 31 31 31 30 30 30 29 29 28 28 28 28 28 28 29 28 28
31 31 30 29 30 29 28 28 27 27 27 26 25 23 23 24 26 27 28 29 29 29 29 29 28 28 28 28 28 29 30 31 31 32 32 32 32 32 31 31 30 30 30 29 29 29 30 30 29 29 29 29
31 32 31 31 31 31 30 29 28 28 28 27 25 24 24 26 27 27 28 28 29 30 29 29 28 28 28 28 29 30 31 32 32 33 33 33 33 32 32 32 31 31 31 30 30 30 30 31 30 30 30 30
32 33 32 32 32 32 31 30 29 29 29 28 26 25 25 27 28 28 28 29 30 30 30 30 29 28 28 29 30 31 32 33 33 34 34 34 34 33 33 33 33 32 32 32 31 31 31 31 31 31 31 31
32 33 33 33 33 33 32 30 30 30 30 28 27 26 26 28 29 29 28 29 30 31 31 30 29 29 29 29 31 32 33 34 34 35 35 35 34 34 34 34 34 33 33 33 32 32 32 32 32 32 32 31
32 33 34 34 34 33 33 32 32 31 30 30 28 27 27 29 29 29 29 30 31 32 32 31 30 29 29 30 31 32 34 34 35 35 35 35 35 35 35 35 34 34 34 33 33 33 32 32 32 32 32 32
31 32 33 34 35 34 33 33 33 32 31 30 29 28 29 30 30 30 30 31 32 33 33 31 30 30 30 30 32 33 34 35 36 36 36 36 36 36 35 35 35 34 34 34 34 33 33 32 32 32 32 32
31 31 32 34 35 35 35 34 34 33 32 31 30 30 30 31 31 31 31 32 33 33 33 32 31 30 30 31 32 34 35 36 37 37 37 37 36 36 36 36 35 35 35 35 34 34 33 33 32 32 32 33
30 31 32 33 34 35 35 35 34 33 33 32 32 32 32 32 32 32 32 33 34 34 34 33 32 31 31 31 33 34 35 36 37 37 37 37 37 37 37 37 36 36 35 35 34 34 34 33 33 32 32 33
30 31 32 33 34 35 36 36 35 34 33 33 33 33 33 32 32 33 33 34 34 34 34 33 33 32 31 32 33 34 35 37 38 38 38 38 38 38 38 38 37 36 36 35 35 34 34 34 33 33 33 33
30 31 31 32 33 35 35 36 36 34 34 34 34 34 34 33 34 34 34 35 35 35 34 34 33 32 32 33 34 35 36 37 38 39 39 39 38 38 39 38 38 37 37 36 35 35 34 34 34 34 33 33
31 31 31 32 33 34 35 35 35 35 35 35 35 34 34 34 35 36 36 35 35 35 34 34 34 33 33 33 34 35 36 38 38 39 39 39 39 39 39 39 38 38 37 36 36 35 35 35 34 34 34 33
30 30 31 32 32 33 34 34 34 35 35 35 34 34 34 35 37 37 36 35 34 34 34 34 35 34 34 33 34 35 37 38 38 39 39 40 40 40 40 39 39 38 37 37 36 36 36 36 35 35 34 34
29 29 30 31 31 32 33 32 33 34 34 34 34 34 34 35 36 36 35 34 34 33 34 34 35 35 34 33 34 35 37 38 38 39 40 40 40 40 40 40 39 39 38 38 38 37 37 36 36 35 35 36
30 30 30 30 31 32 32 32 33 34 34 34 34 33 33 33 34 34 34 34 33 33 34 34 34 34 33 33 33 35 36 37 38 39 40 41 41 41 40 40 40 39 39 38 38 38 37 37 37 37 37 37
33 33 32 32 32 32 32 33 34 35 36 36 35 34 33 32 32 33 34 33 33 33 34 34 34 34 33 33 33 34 36 37 39 40 41 41 42 42 41 41 40 40 40 40 39 38 38 38 38 38 38 38
34 34 34 34 34 33 33 33 34 35 36 36 36 35 34 33 33 33 33 33 33 33 34 34 34 34 33 33 33 34 36 38 39 40 41 41 42 42 41 41 40 40 41 41 40 39 40 40 40 40 40 41
34 35 36 36 36 35 35 34 34 34 35 36 36 35 34 33 33 32 32 32 33 33 33 34 34 33 33 33 34 35 36 38 39 40 40 41 42 42 42 41 41 41 41 42 41 41 43 42 42 43 43 43
30 34 36 36 36 36 36 35 35 35 35 35 34 33 32 31 30 30 30 31 32 32 32 33 34 33 33 33 34 35 36 37 38 39 40 41 42 42 43 42 41 42 43 43 43 43 44 44 45 46 46 45
25 29 32 35 36 36 36 36 35 36 35 34 34 34 33 31 30 31 31 31 31 32 32 33 33 34 34 34 34 35 36 37 38 40 41 42 42 43 43 43 42 43 44 45 44 44 45 46 47 48 47 46
21 24 27 30 33 35 36 36 36 36 35 34 35 35 34 33 33 33 33 33 33 33 33 33 34 35 36 35 35 35 36 37 38 40 41 42 43 44 44 44 44 45 45 46 46 46 47 48 49 49 48 48
19 20 22 24 27 30 33 36 36 36 35 35 35 35 35 34 34 34 34 34 35 35 35 35 35 36 37 37 37 37 37 38 38 39 40 42 44 44 44 45 46 46 45 46 48 48 48 49 49 50 50 51
Wind_Direction
245 247 250 251 252 256 259 261 263 264 265 266 268 269 270 270 271 272 272 274 275 271 270 275 280 285 288 288 285 279 273 271 270 269 268 267 266 265 264 264 264 265 266 266 267 268 269 270 270 269 269 268
248 250 252 254 256 259 261 262 264 266 267 268 269 269 269 269 269 271 273 275 274 271 271 276 281 285 288 287 284 278 273 271 269 268 267 266 265 265 264 264 264 264 265 266 266 267 269 269 270 270 270 269
250 252 255 256 257 258 260 262 264 266 268 269 269 268 268 269 269 270 272 274 273 272 274 278 282 286 287 286 282 277 273 271 269 267 266 265 265 264 264 264 264 264 265 265 267 268 268 269 269 269 269 268
252 254 256 258 258 259 261 263 265 266 267 268 268 267 267 268 269 268 269 272 273 274 276 280 283 285 286 284 279 275 272 269 268 267 265 265 264 263 263 263 264 264 265 266 268 268 269 269 269 269 268 268
254 255 257 259 260 261 263 265 267 268 269 269 268 268 268 268 268 268 268 270 272 274 277 280 283 285 285 282 277 273 270 268 267 266 265 263 263 263 263 263 264 264 265 266 267 268 268 268 268 268 268 268
254 255 256 258 260 262 265 267 268 270 270 268 268 268 268 268 268 268 268 268 271 274 276 280 282 284 283 280 276 273 270 268 267 265 264 263 263 262 262 262 263 263 264 265 266 266 266 266 267 267 267 267
254 255 256 259 261 264 266 267 267 267 268 268 269 268 268 269 268 268 268 269 270 273 276 279 282 282 281 278 275 272 270 269 267 266 265 264 263 262 262 262 262 262 263 264 264 264 264 264 264 264 264 264
256 257 258 261 263 265 266 266 265 265 267 269 269 269 269 270 269 269 270 271 272 274 277 279 280 280 279 276 273 270 269 268 267 266 265 264 263 262 261 261 261 261 262 262 262 263 262 262 262 262 262 262
258 259 260 262 263 264 263 263 263 264 265 267 268 269 270 270 270 271 272 272 274 276 278 278 278 278 276 274 271 268 267 265 265 264 263 262 262 261 261 261 261 261 261 261 261 261 261 261 261 261 260 260
261 261 262 263 263 262 262 262 262 263 265 266 267 267 268 269 269 270 271 273 274 276 278 278 278 277 274 271 268 266 265 263 263 262 261 261 260 260 260 260 260 261 261 261 261 261 261 260 260 260 260 259
263 263 262 262 262 262 262 262 262 263 264 265 265 266 266 267 267 268 270 273 275 277 278 278 278 276 273 270 267 265 264 263 262 261 260 260 259 259 259 259 260 260 260 260 261 261 260 260 260 259 259 259
261 261 260 261 261 262 262 262 263 264 264 264 264 264 265 265 266 268 271 274 276 277 277 278 278 276 272 269 266 264 263 262 261 260 260 260 259 259 259 259 260 260 260 260 260 260 260 260 260 260 259 259
260 259 259 259 260 261 261 261 262 262 262 263 263 263 264 265 267 269 272 274 276 277 277 278 277 275 271 268 266 264 262 262 261 260 260 259 259 259 259 259 259 259 259 259 259 259 259 259 259 259 259 259
259 259 258 258 259 259 259 259 260 260 261 262 263 263 264 265 268 270 273 275 276 278 279 278 277 274 271 267 265 263 263 262 261 260 260 259 258 258 258 257 257 258 258 258 258 258 257 257 258 258 258 258
257 257 257 257 257 257 258 258 258 259 260 261 262 263 263 265 268 271 273 275 277 279 279 279 278 274 270 267 265 264 263 262 261 260 260 259 258 257 257 257 257 257 258 258 258 257 257 257 257 258 258 258
255 255 255 256 256 256 257 257 257 258 259 260 261 261 262 264 267 270 272 274 276 277 278 279 277 274 270 267 265 264 263 262 262 261 260 259 259 258 257 257 257 257 257 257 257 257 257 257 257 257 257 258
255 253 252 253 255 255 255 256 256 257 258 259 259 260 261 263 266 269 271 273 275 276 277 277 276 274 271 268 265 264 263 262 261 261 260 260 259 259 258 257 257 257 257 257 257 257 257 257 257 257 257 257
255 253 250 250 252 253 254 255 256 256 257 258 258 259 260 262 265 269 271 273 274 275 276 276 276 275 272 269 265 264 264 263 262 261 261 260 260 259 258 257 257 257 257 257 257 258 258 257 257 257 257 257
254 252 249 249 250 251 252 253 255 256 256 256 257 258 260 263 266 269 271 273 274 274 274 275 275 275 273 269 266 264 264 263 262 262 261 261 260 259 258 258 258 257 257 258 258 258 258 258 257 257 257 257
251 250 248 248 248 249 250 252 254 255 256 256 256 258 260 263 267 270 272 273 273 273 274 274 275 275 273 270 267 264 264 263 262 261 261 261 260 259 258 258 257 257 257 257 257 257 257 257 257 257 257 256
249 249 248 247 247 248 249 250 252 254 255 255 256 258 261 265 268 271 272 273 273 273 274 274 275 274 273 270 267 264 263 263 262 261 261 260 260 259 258 258 257 257 257 257 257 257 257 257 257 257 257 256
249 249 248 248 248 248 249 250 252 253 254 255 256 259 262 266 270 272 273 274 274 274 274 274 274 274 273 270 267 264 264 263 263 262 262 261 260 260 259 259 258 258 258 258 258 258 257 257 257 257 257 257
248 249 249 249 249 249 250 251 252 253 254 256 257 260 264 267 270 272 273 274 274 273 272 272 273 273 272 270 267 265 264 265 265 264 263 262 261 261 260 259 259 258 258 258 258 258 258 257 257 257 257 257
248 248 249 249 249 249 249 249 250 250 252 254 256 259 261 264 267 270 271 271 271 271 270 271 271 272 272 270 268 266 266 266 265 264 262 261 260 260 260 259 259 258 258 258 257 257 257 257 257 257 257 257
249 250 250 250 250 249 248 248 248 248 249 251 253 254 255 258 261 263 265 267 268 268 268 268 269 270 270 269 267 266 265 265 263 262 261 260 260 260 260 260 260 259 259 258 258 258 258 258 258 257 257 257
251 251 251 251 251 250 249 249 248 248 248 249 250 250 251 252 254 256 260 263 265 266 266 267 268 269 269 269 267 265 264 264 264 263 262 262 262 262 262 262 261 260 260 260 260 260 259 258 257 257 256 256
253 252 252 252 252 251 250 249 248 248 248 249 251 252 253 252 253 255 258 261 263 265 266 267 268 269 269 268 267 265 264 264 264 265 264 264 263 263 262 262 262 261 261 261 260 259 258 258 257 257 256 256
255 253 253 252 252 252 251 251 250 250 250 251 252 253 253 252 253 254 257 259 261 263 264 265 266 267 267 267 267 266 264 264 264 265 264 263 263 263 263 262 262 262 262 260 259 259 259 259 258 257 257 257
259 257 255 254 254 253 253 252 251 251 251 251 251 250 248 247 246 247 249 251 254 257 259 261 263 264 265 265 264 264 263 263 263 263 263 262 262 262 262 262 262 261 260 259 259 258 259 259 258 258 258 258
265 263 261 259 257 256 255 255 254 253 252 252 251 250 248 246 244 243 244 245 247 249 252 255 257 259 260 261 262 261 261 260 260 261 262 262 262 262 261 261 260 259 259 259 259 258 258 259 259 260 260 259
273 272 270 267 264 262 260 258 257 256 255 254 253 253 251 250 248 246 245 244 245 246 248 250 253 256 258 260 260 260 259 258 259 260 261 261 261 261 260 260 259 259 259 260 259 259 259 260 260 261 261 261
Height
3134 3135 3135 3136 3136 3136 3137 3137 3137 3137 3137 3137 3137 3137 3137 3137 3137 3136 3136 3136 3136 3136 3136 3136 3135 3135 3135 3135 3134 3134 3134 3135 3135 3135 3135 3135 3136 3136 3136 3136 3137 3137 3137 3137 3137 3137 3137 3137 3137 3137 3137 3138
3132 3133 3133 3133 3134 3134 3135 3135 3135 3135 3135 3135 3135 3135 3135 3135 3135 3134 3134 3134 3134 3134 3134 3133 3133 3133 3133 3133 3133 3133 3133 3133 3133 3133 3133 3134 3134 3134 3134 3135 3135 3135 3135 3135 3135 3135 3135 3135 3135 3135 3136 3136
3130 3130 3130 3131 3131 3131 3132 3132 3132 3132 3132 3133 3133 3132 3132 3132 3133 3132 3132 3132 3132 3132 3131 3131 3131 3131 3131 3131 3131 3131 3131 3131 3131 3131 3131 3131 3132 3132 3132 3132 3133 3133 3133 3133 3133 3133 3133 3133 3133 3133 3133 3134
3127 3128 3127 3128 3128 3128 3128 3129 3129 3129 3129 3130 3130 3130 3130 3130 3130 3130 3130 3130 3130 3130 3130 3129 3129 3129 3129 3129 3129 3129 3129 3129 3129 3129 3129 3130 3130 3130 3130 3130 3131 3131 3131 3131 3131 3131 3131 3131 3131 3131 3131 3131
3124 3125 3125 3125 3125 3125 3125 3126 3126 3126 3126 3126 3127 3127 3127 3127 3127 3128 3127 3128 3128 3128 3127 3127 3127 3127 3127 3127 3127 3127 3127 3127 3127 3127 3127 3128 3128 3128 3128 3128 3128 3129 3129 3129 3129 3129 3129 3129 3129 3129 3129 3129
3121 3122 3122 3122 3122 3123 3123 3123 3123 3123 3123 3123 3124 3124 3124 3124 3125 3125 3125 3125 3125 3125 3125 3125 3125 3125 3125 3125 3125 3125 3125 3125 3125 3125 3125 3126 3126 3126 3126 3126 3126 3126 3126 3126 3127 3127 3127 3127 3127 3127 3127 3127
3118 3119 3119 3119 3120 3120 3120 3121 3121 3121 3121 3121 3121 3121 3121 3122 3122 3122 3122 3122 3122 3122 3123 3123 3123 3123 3122 3122 3122 3122 3123 3123 3123 3123 3124 3124 3124 3124 3124 3124 3124 3124 3124 3124 3124 3125 3125 3125 3125 3125 3125 3125
3116 3116 3116 3117 3117 3118 3118 3118 3118 3118 3118 3118 3119 3119 3119 3119 3119 3119 3119 3120 3120 3120 3120 3120 3120 3120 3120 3120 3120 3120 3121 3121 3121 3122 3122 3122 3122 3122 3122 3122 3122 3122 3122 3122 3122 3123 3123 3123 3123 3123 3123 3123
3113 3113 3114 3114 3115 3115 3115 3115 3116 3116 3116 3116 3116 3116 3117 3117 3117 3117 3117 3117 3117 3117 3117 3117 3117 3117 3117 3117 3117 3118 3118 3119 3119 3119 3119 3119 3119 3119 3119 3119 3120 3120 3120 3120 3120 3121 3121 3121 3121 3121 3121 3121
3110 3110 3111 3111 3112 3112 3112 3113 3113 3113 3113 3113 3114 3114 3114 3114 3114 3114 3115 3115 3115 3115 3115 3115 3115 3115 3114 3114 3115 3115 3116 3116 3116 3117 3117 3117 3117 3117 3117 3117 3117 3118 3118 3118 3118 3118 3118 3119 3119 3119 3118 3119
3107 3107 3108 3108 3108 3109 3110 3110 3111 3111 3111 3111 3111 3112 3112 3112 3112 3112 3112 3112 3112 3112 3112 3112 3112 3112 3112 3112 3112 3112 3113 3113 3114 3114 3114 3114 3114 3114 3114 3115 3115 3115 3115 3115 3115 3116 3116 3116 3116 3116 3116 3116
3104 3104 3105 3105 3106 3106 3107 3107 3108 3108 3108 3108 3109 3109 3110 3109 3109 3109 3110 3110 3110 3109 3109 3109 3109 3109 3109 3109 3109 3110 3110 3111 3111 3111 3111 3111 3111 3112 3112 3112 3112 3112 3113 3113 3113 3113 3113 3112 3113 3113 3113 3113
3101 3101 3102 3103 3103 3103 3104 3104 3105 3105 3105 3105 3106 3107 3107 3106 3106 3106 3107 3107 3107 3106 3106 3106 3106 3106 3106 3106 3106 3107 3107 3108 3108 3108 3108 3108 3109 3109 3109 3109 3109 3109 3109 3110 3110 3110 3110 3109 3109 3109 3110 3110
3098 3098 3098 3099 3100 3100 3100 3101 3101 3101 3101 3102 3103 3104 3104 3103 3103 3103 3104 3104 3104 3103 3103 3103 3103 3103 3103 3103 3104 3104 3104 3105 3105 3105 3106 3106 3106 3106 3106 3106 3106 3106 3106 3106 3107 3107 3107 3107 3107 3106 3107 3107
3095 3095 3095 3095 3096 3096 3097 3097 3098 3098 3098 3099 3100 3101 3100 3100 3100 3100 3101 3101 3100 3100 3100 3100 3100 3100 3100 3101 3101 3101 3101 3102 3102 3102 3102 3102 3102 3103 3103 3103 3103 3103 3103 3103 3103 3104 3104 3104 3104 3104 3104 3104
3091 3091 3092 3091 3092 3093 3093 3094 3094 3094 3095 3095 3097 3097 3097 3097 3097 3097 3098 3098 3097 3097 3097 3097 3097 3097 3097 3098 3098 3098 3098 3099 3099 3099 3099 3099 3099 3099 3100 3100 3100 3100 3100 3100 3100 3100 3100 3101 3101 3100 3100 3101
3087 3088 3088 3088 3088 3089 3089 3089 3090 3091 3092 3092 3093 3093 3093 3093 3094 3094 3094 3094 3094 3094 3093 3094 3094 3094 3094 3094 3094 3095 3095 3095 3095 3095 3096 3096 3096 3096 3096 3097 3096 3097 3097 3097 3097 3097 3097 3097 3097 3097 3097 3097
3083 3083 3084 3084 3084 3085 3085 3085 3086 3087 3088 3089 3089 3089 3090 3090 3090 3091 3091 3091 3090 3090 3090 3090 3090 3090 3091 3091 3091 3091 3092 3092 3092 3092 3092 3093 3093 3093 3093 3093 3093 3093 3093 3093 3093 3093 3093 3094 3094 3094 3094 3094
3078 3078 3079 3080 3080 3080 3081 3081 3082 3083 3084 3085 3085 3085 3086 3086 3087 3087 3087 3087 3087 3086 3086 3086 3086 3087 3087 3087 3087 3088 3088 3088 3088 3088 3089 3089 3089 3089 3089 3089 3089 3089 3089 3089 3089 3090 3090 3090 3090 3090 3090 3090
3073 3073 3074 3075 3076 3076 3076 3077 3078 3079 3080 3080 3080 3081 3082 3082 3082 3083 3083 3083 3083 3083 3082 3083 3083 3083 3083 3083 3083 3084 3084 3084 3084 3085 3085 3085 3086 3086 3085 3085 3086 3085 3085 3086 3086 3086 3086 3086 3086 3087 3087 3087
3068 3068 3069 3070 3071 3071 3072 3073 3074 3075 3075 3075 3076 3077 3077 3078 3078 3078 3079 3079 3079 3079 3079 3079 3079 3079 3079 3079 3080 3080 3080 3080 3081 3081 3081 3082 3082 3082 3082 3082 3082 3082 3082 3082 3082 3082 3082 3082 3082 3082 3083 3082
3063 3064 3064 3065 3066 3066 3067 3068 3069 3070 3070 3071 3072 3073 3073 3073 3073 3073 3074 3075 3075 3075 3075 3074 3074 3074 3075 3075 3075 3076 3076 3076 3077 3077 3078 3078 3078 3078 3078 3078 3078 3078 3078 3078 3078 3078 3078 3078 3078 3078 3078 3078
3058 3059 3060 3061 3061 3062 3063 3064 3065 3065 3066 3066 3068 3069 3069 3069 3068 3069 3070 3070 3070 3070 3070 3070 3070 3070 3070 3071 3071 3072 3072 3072 3073 3073 3073 3073 3074 3074 3074 3074 3074 3074 3074 3074 3074 3074 3074 3074 3074 3074 3074 3074
3054 3054 3055 3056 3056 3057 3058 3059 3059 3059 3060 3061 3062 3063 3064 3064 3064 3064 3064 3065 3065 3065 3065 3065 3065 3065 3066 3067 3067 3067 3068 3068 3068 3069 3068 3068 3068 3069 3069 3069 3069 3069 3069 3069 3069 3069 3069 3069 3070 3069 3069 3069
3050 3051 3051 3051 3052 3052 3053 3053 3053 3054 3054 3055 3056 3057 3057 3058 3059 3058 3058 3059 3059 3060 3060 3060 3061 3061 3061 3062 3062 3063 3063 3063 3063 3063 3063 3063 3063 3064 3064 3065 3065 3065 3065 3064 3065 3065 3065 3065 3065 3065 3065 3065
3047 3047 3047 3047 3047 3048 3048 3048 3048 3048 3049 3049 3050 3051 3052 3053 3053 3053 3054 3054 3054 3055 3055 3055 3056 3056 3057 3057 3058 3058 3058 3058 3058 3058 3059 3059 3059 3059 3060 3060 3060 3060 3060 3060 3061 3061 3060 3060 3060 3060 3060 3060
3043 3043 3043 3043 3043 3043 3043 3043 3044 3044 3044 3044 3045 3046 3047 3048 3048 3049 3049 3050 3050 3050 3050 3050 3051 3051 3052 3052 3053 3053 3053 3053 3053 3053 3054 3054 3054 3054 3054 3055 3055 3056 3056 3056 3057 3056 3055 3055 3055 3055 3055 3056
3039 3039 3039 3039 3039 3039 3039 3039 3039 3040 3040 3040 3041 3042 3043 3043 3044 3045 3045 3045 3045 3045 3045 3045 3045 3046 3046 3047 3047 3047 3048 3048 3048 3048 3049 3049 3049 3049 3049 3050 3051 3051 3051 3051 3051 3050 3050 3050 3049 3049 3050 3052
3035 3035 3035 3035 3035 3035 3035 3035 3035 3035 3036 3036 3036 3036 3037 3038 3038 3038 3039 3039 3039 3039 3040 3040 3040 3040 3040 3041 3042 3042 3042 3043 3043 3043 3043 3043 3044 3044 3044 3045 3046 3045 3045 3045 3046 3045 3045 3044 3043 3044 3046 3046
3032 3032 3032 3031 3031 3031 3031 3031 3031 3031 3032 3032 3031 3031 3032 3032 3032 3033 3033 3033 3033 3034 3034 3034 3034 3034 3034 3035 3035 3036 3036 3037 3037 3037 3038 3038 3039 3039 3039 3039 3039 3039 3039 3040 3040 3040 3039 3039 3038 3039 3040 3040
3030 3029 3029 3028 3028 3027 3027 3027 3027 3027 3027 3027 3027 3027 3027 3027 3027 3028 3028 3028 3029 3029 3029 3029 3029 3029 3029 3029 3029 3030 3030 3031 3031 3032 3033 3033 3033 3033 3033 3033 3033 3033 3035 3034 3034 3034 3034 3034 3034 3034 3034 3033